Back to catalog

EUTE HOT BIRD 13B

HB 8

AliveCommunicationsGEO
NORAD 29270·PAYLOAD·🇪🇺 EU

Launched Aug 4, 2006 from Baikonur Cosmodrome

Loading…

TLE

FreshSource: Space-Track

Epoch: Sep 14, 2026, 22:30 UTC

1 29270U 06032A   26257.93812081  .00000149  00000-0  00000-0 0  9999
2 29270   1.8873  81.1151 0003326  92.0628 191.5822  1.00275789 48208

Track EUTE HOT BIRD 13B in real time with AllMySat

Download on the App Store